[Date Prev][Date Next][Thread Prev][Thread Next] - [Date Index][Thread Index][Author Index]
2 Line ISS Keps 6-29
- Subject: [sarex] 2 Line ISS Keps 6-29
- From: "Dave Larsen PhD" <doc@xxxxxxxxxxx>
- Date: Tue, 29 Jun 2004 04:20:37 -0700
ISS
1 25544U 98067A 04181.31273441 .00013972 00000-0 12119-3 0 999
2 25544 51.6319 263.9065 0005383 301.9589 127.1061 15.69421585320225
----
Via the sarex mailing list at AMSAT.ORG courtesy of AMSAT-NA.
To unsubscribe, send "unsubscribe sarex" to Majordomo@amsat.org
AMSAT Home